| time (UTC) | temp F | wind direction | speed knots | gust knots | rain 1hr in | rain 24hr in | rain mn in | humidity % | barometer mb |
| 20260507150210 | 57 | 315 | 0.0 | 0.0 | 0.00 | 0.00 | 0.14 | 71 | 1012.9 |
| 20260507143212 | 59 | 315 | 0.0 | 0.0 | 0.00 | 0.00 | 0.14 | 72 | 1013.0 |
| 20260507140210 | 58 | 315 | 0.0 | 0.0 | 0.00 | 0.00 | 0.14 | 75 | 1013.2 |
| 20260507133210 | 58 | 315 | 0.0 | 0.0 | 0.00 | 0.00 | 0.14 | 75 | 1013.2 |
| 20260507130210 | 57 | 90 | 3.5 | 0.0 | 0.00 | 0.00 | 0.14 | 75 | 1013.1 |
| 20260507123210 | 56 | 90 | 3.5 | 0.0 | 0.00 | 0.00 | 0.14 | 74 | 1013.0 |
| 20260507120211 | 57 | 90 | 3.5 | 0.0 | 0.00 | 0.00 | 0.06 | 70 | 1012.9 |
| 20260507113210 | 57 | 90 | 3.5 | 0.0 | 0.00 | 0.00 | 0.06 | 72 | 1012.9 |
| 20260507110210 | 58 | 90 | 3.5 | 0.0 | 0.00 | 0.00 | 0.06 | 71 | 1013.2 |
| 20260507103216 | 58 | 90 | 3.5 | 0.0 | 0.00 | 0.00 | 0.06 | 73 | 1013.2 |
| 20260507100212 | 55 | 90 | 3.5 | 0.0 | 0.00 | 0.00 | 0.06 | 77 | 1012.9 |
| 20260507093210 | 53 | 90 | 3.5 | 0.0 | 0.00 | 0.00 | 0.06 | 77 | 1012.8 |
| 20260507090211 | 53 | 90 | 3.5 | 0.0 | 0.00 | 0.00 | 0.06 | 79 | 1012.6 |
| 20260507083212 | 53 | 90 | 3.5 | 0.0 | 0.00 | 0.00 | 0.06 | 84 | 1012.5 |
| 20260507080211 | 51 | 90 | 3.5 | 0.0 | 0.00 | 0.00 | 0.06 | 85 | 1011.8 |
| 20260507073212 | 51 | 247 | 1.7 | 0.0 | 0.00 | 0.00 | 0.06 | 85 | 1012.0 |
| 20260507070212 | 47 | 202 | 4.3 | 0.0 | 0.00 | 0.00 | 0.00 | 83 | 1008.6 |
| 20260507063211 | 47 | 202 | 4.3 | 0.0 | 0.00 | 0.00 | 0.00 | 83 | 1008.6 |
| 20260507060211 | 47 | 202 | 4.3 | 0.0 | 0.00 | 0.00 | 0.00 | 83 | 1008.6 |
| 20260507053211 | 47 | 202 | 4.3 | 0.0 | 0.00 | 0.00 | 0.00 | 83 | 1008.6 |
| 20260507050213 | 47 | 202 | 4.3 | 0.0 | 0.00 | 0.00 | 0.00 | 83 | 1008.6 |
| 20260507043211 | 47 | 202 | 4.3 | 0.0 | 0.00 | 0.00 | 0.00 | 83 | 1008.6 |
| 20260507040216 | 47 | 202 | 4.3 | 0.0 | 0.00 | 0.00 | 0.00 | 83 | 1008.6 |
| 20260507033211 | 47 | 202 | 4.3 | 0.0 | 0.00 | 0.00 | 0.00 | 83 | 1008.6 |
| 20260507030211 | 47 | 202 | 4.3 | 0.0 | 0.00 | 0.00 | 0.00 | 83 | 1008.6 |
| 20260507023211 | 47 | 202 | 4.3 | 0.0 | 0.00 | 0.00 | 0.00 | 83 | 1008.6 |
| 20260507020211 | 47 | 202 | 4.3 | 0.0 | 0.00 | 0.00 | 0.00 | 83 | 1008.6 |
| 20260507013212 | 47 | 202 | 4.3 | 0.0 | 0.00 | 0.00 | 0.00 | 83 | 1008.6 |
| 20260507010211 | 47 | 202 | 4.3 | 0.0 | 0.00 | 0.00 | 0.00 | 83 | 1008.6 |
| 20260507003209 | 47 | 202 | 4.3 | 0.0 | 0.00 | 0.00 | 0.00 | 83 | 1008.6 |
| 20260507000209 | 47 | 202 | 4.3 | 0.0 | 0.00 | 0.00 | 0.00 | 83 | 1008.6 |
| 20260506233209 | 47 | 202 | 4.3 | 0.0 | 0.00 | 0.00 | 0.00 | 83 | 1008.6 |
| 20260506230209 | 48 | 202 | 4.3 | 0.0 | 0.00 | 0.00 | 0.00 | 82 | 1008.4 |
| 20260506223209 | 49 | 202 | 4.3 | 0.0 | 0.00 | 0.00 | 0.00 | 82 | 1008.4 |
| 20260506220209 | 50 | 202 | 4.3 | 0.0 | 0.00 | 0.00 | 0.11 | 81 | 1008.1 |
| 20260506213209 | 50 | 202 | 4.3 | 0.0 | 0.00 | 0.00 | 0.11 | 82 | 1007.8 |
| 20260506210210 | 50 | 202 | 4.3 | 0.0 | 0.00 | 0.00 | 0.11 | 82 | 1007.8 |
| 20260506203210 | 51 | 202 | 4.3 | 0.0 | 0.00 | 0.00 | 0.11 | 81 | 1007.9 |
| 20260506200210 | 51 | 202 | 4.3 | 0.0 | 0.00 | 0.00 | 0.11 | 82 | 1007.8 |
| 20260506193215 | 51 | 202 | 4.3 | 0.0 | 0.00 | 0.00 | 0.11 | 80 | 1007.0 |
| 20260506190211 | 53 | 202 | 4.3 | 0.0 | 0.00 | 0.00 | 0.11 | 80 | 1006.9 |
| 20260506183209 | 52 | 202 | 4.3 | 0.0 | 0.00 | 0.00 | 0.11 | 80 | 1006.7 |
| 20260506180216 | 53 | 202 | 4.3 | 0.0 | 0.00 | 0.00 | 0.11 | 79 | 1006.4 |
| 20260506173210 | 54 | 202 | 4.3 | 0.0 | 0.00 | 0.00 | 0.11 | 77 | 1005.9 |
| 20260506170215 | 55 | 202 | 4.3 | 0.0 | 0.00 | 0.00 | 0.11 | 77 | 1005.6 |
| 20260506163210 | 55 | 202 | 4.3 | 0.0 | 0.00 | 0.00 | 0.06 | 75 | 1005.7 |
| 20260506160210 | 56 | 225 | 0.0 | 0.0 | 0.00 | 0.00 | 0.03 | 71 | 1005.5 |
| 20260506153210 | 59 | 225 | 8.7 | 0.0 | 0.00 | 0.00 | 0.00 | 64 | 1004.4 |